Flag Weather past 2 weeks in Lucerne, Lucerne, Switzerland

Now
47 °F

Cool.


Feels Like: 47 °F
Forecast: 42 / 55 °F
Wind: No wind

Location: Giswil

Current Time: Nov 26, 2014 at 11:20:36 AM

Latest Report: Nov 26, 2014 at 10:00 AM


Visibility: N/A

Pressure: 30.01 "Hg

Humidity: 100%

Dew point: 47 °F

Location of LucerneLocation

Historic Weather in Lucerne — Graph

°F

Lucerne temperature yesterday

Maximum temperature yesterday: 49 °F (at 2:00 PM)
Minimum temperature yesterday: 44 °F (at 12:00 AM)
Average temperature yesterday: 47 °F

Past Weeks' High & Low Weather Summary

 TemperatureHumidityPressure
High57 °F (Nov 24, 3:00 PM)100% (Nov 11, 10:00 AM)30.33 "Hg (Nov 11, 10:00 AM)
Low30 °F (Nov 20, 2:00 AM)69% (Nov 19, 2:00 PM)29.59 "Hg (Nov 15, 6:00 PM)
Average43 °F97%29.98 "Hg
* Reported Nov 11 10:00 AM — Nov 26 10:00 AM, Lucerne, Weather by CustomWeather, © 2014

Note: Actual official high and low records may vary slightly from our data, if they occured in-between our weather recording intervals... More about our weather records

Advertising

Lucerne weather history for previous 24 hours

 ConditionsComfort  
Time TempWeatherWind HumidityBarometerVisibility
10:00 AM
Nov 26
47 °FCool.No wind100%30.01 "HgN/A
9:00 AM46 °FCool.No wind100%30.02 "HgN/A
8:00 AM46 °FCool.1 mph100%30.02 "HgN/A
7:00 AM46 °FCool.No wind100%30.02 "HgN/A
6:00 AM46 °FCool.No wind100%30.03 "HgN/A
5:00 AM46 °FCool.No wind100%30.03 "HgN/A
3:00 AM46 °FCool.No wind100%30.05 "HgN/A
2:00 AM47 °FCool.No wind100%30.07 "HgN/A
1:00 AM47 °FCool.No wind100%30.07 "HgN/A
12:00 AM47 °FCool.No wind100%30.09 "HgN/A
11:00 PM
Nov 25
47 °FCool.1 mph100%30.09 "HgN/A
10:00 PM47 °FCool.No wind100%30.09 "HgN/A
9:00 PM47 °FCool.No wind100%30.10 "HgN/A
8:00 PM48 °FCool.No wind100%30.09 "HgN/A
7:00 PM48 °FCool.No wind100%30.10 "HgN/A
6:00 PM48 °FCool.1 mph100%30.10 "HgN/A
5:00 PM49 °FCool.1 mph100%30.10 "HgN/A
4:00 PM49 °FCool.1 mph100%30.11 "HgN/A
3:00 PM49 °FCool.1 mph100%30.11 "HgN/A
2:00 PM49 °FCool.No wind100%30.13 "HgN/A
1:00 PM49 °FCool.No wind100%30.14 "HgN/A
12:00 PM48 °FCool.1 mph100%30.15 "HgN/A
11:00 AM48 °FCool.No wind100%30.16 "HgN/A
Weather by CustomWeather, © 2014

See weather overviewHow to use our weather pages